Location: Bletchingley
(51.2333°N, 0.1000°W)
Time: 17:28:15
(UTC+00:00)

NOSS 8 (H) - Pass Details

Date: 18 September 2020
Orbit: 384 x 1790 km, 63.3° (Epoch: 31 October)

Event Time Altitude Azimuth Distance (km) Brightness Sun altitude
Rises 19:08:23 0° 215° (SW) 2,404 8.4 -10.3°
Reaches altitude 10° 19:10:32 10° 212° (SSW) 1,462 7.2 -10.6°
Maximum altitude 19:13:35 61° 131° (SE) 442 4.1 -11.1°
Drops below altitude 10° 19:16:35 10° 50° (NE) 1,437 6.6 -11.5°
Enters shadow 19:17:41 - 48° (NE) 1,920 7.3 -11.7°
